Weather History for KATY - April, 2014

Change the Weather History Date:

Wednesday, April 16, 2014

  Actual Average Record
Temperature  
Mean Temperature 26 °F 44 °F  
Max Temperature 32 °F 56 °F 86 °F (1964)
Min Temperature 19 °F 32 °F 13 °F (1928)
Degree Days  
Heating Degree Days 39 21  
Month to date heating degree days 453 392  
Since 1 July heating degree days 8668 7907  
Cooling Degree Days 0 0  
Month to date cooling degree days 0 0  
Year to date cooling degree days 0 0  
Moisture  
Dew Point 23 °F    
Average Humidity 78    
Maximum Humidity 92    
Minimum Humidity 63    
Precipitation  
Precipitation 0.01 in 0.07 in 1.28 in (1945)
Month to date precipitation 0.05 0.94  
Year to date precipitation 1.45 3.13  
Snow  
Snow 0.00 in - - ()
Month to date snowfall 0.3  
Since 1 July snowfall 24.5  
Snow Depth 0.00 in    
Sea Level Pressure  
Sea Level Pressure 29.90 in    
Wind  
Wind Speed 21 mph (NE)    
Max Wind Speed 29 mph    
Max Gust Speed 37 mph    
Visibility 4 miles    
Events Fog , Snow    
T = Trace of Precipitation, MM = Missing Value Source: NWS Daily Summary

Daily Weather History Graph

Daily Weather History Graph

Search for Another Location

Airport or City:

Trip Planner

Search our weather history database for the weather conditions in past years. The results will help you decide how hot, cold, wet, or windy it might be!

Date:

Astronomy

Apr. 16, 2014 Rise Set
Actual Time 6:42 AM CDT 8:15 PM CDT
Civil Twilight 6:11 AM CDT 8:46 PM CDT
Nautical Twilight 5:34 AM CDT 9:23 PM CDT
Astronomical Twilight 4:54 AM CDT 10:03 PM CDT
Moon 10:04 PM CDT (4/16) 7:27 AM CDT (4/16)
Length of Visible Light 14h 34m
Length of Day
13h 33m
Full, 98% of the Moon is Illuminated
Apr 16
Full
Apr 22
Last Quarter
Apr 29
New
May 6
First Quarter
May 14
Full

Hourly Weather History & Observations

Time (CDT) Temp. Windchill Dew Point Humidity Pressure Visibility Wind Dir Wind Speed Gust Speed Precip Events Conditions
12:53 AM 32.0 °F 21.2 °F 21.0 °F 64% 29.80 in 10.0 mi East 16.1 mph 29.9 mph N/A   Mostly Cloudy
1:53 AM 32.0 °F 20.1 °F 21.0 °F 64% 29.78 in 10.0 mi ESE 19.6 mph 28.8 mph N/A   Overcast
2:53 AM 30.9 °F 19.8 °F 21.0 °F 67% 29.78 in 10.0 mi East 16.1 mph 26.5 mph N/A   Mostly Cloudy
3:53 AM 30.0 °F 17.9 °F 21.0 °F 69% 29.76 in 10.0 mi East 18.4 mph 29.9 mph N/A   Mostly Cloudy
4:53 AM 30.0 °F 16.6 °F 19.9 °F 66% 29.75 in 10.0 mi East 23.0 mph 34.5 mph N/A   Overcast
5:53 AM 30.0 °F 17.2 °F 19.9 °F 66% 29.75 in 10.0 mi East 20.7 mph 28.8 mph N/A   Overcast
6:53 AM 30.0 °F 18.7 °F 19.9 °F 66% 29.78 in 10.0 mi East 16.1 mph 29.9 mph N/A   Overcast
7:53 AM 30.0 °F 16.0 °F 19.9 °F 66% 29.78 in 6.0 mi East 25.3 mph 32.2 mph 0.00 in Snow Light Snow
8:53 AM 30.0 °F 16.9 °F 21.0 °F 69% 29.76 in 10.0 mi ENE 21.9 mph 34.5 mph 0.00 in   Overcast
9:27 AM 28.9 °F 15.8 °F 23.0 °F 78% 29.75 in 1.8 mi East 20.7 mph 32.2 mph 0.00 in Snow Light Snow
9:30 AM 28.9 °F 15.1 °F 24.1 °F 82% 29.75 in 1.2 mi ENE 23.0 mph 32.2 mph 0.00 in Snow Light Snow
9:41 AM 28.0 °F 14.6 °F 25.0 °F 88% 29.74 in 0.5 mi ENE 20.7 mph 29.9 mph 0.00 in Fog , Snow Snow
9:53 AM 28.0 °F 13.9 °F 25.0 °F 88% 29.80 in 0.5 mi ENE 23.0 mph 27.6 mph 0.00 in Fog , Snow Snow
10:12 AM 28.0 °F 15.7 °F 25.0 °F 88% 29.76 in 0.8 mi ENE 17.3 mph 27.6 mph 0.00 in Snow Light Snow
10:14 AM 28.0 °F 15.7 °F 25.0 °F 88% 29.76 in 1.0 mi NE 17.3 mph 26.5 mph 0.00 in Snow Light Snow
10:34 AM 28.0 °F 16.1 °F 25.0 °F 88% 29.78 in 0.8 mi NE 16.1 mph 24.2 mph 0.00 in Snow Light Snow
10:47 AM 26.6 °F 13.4 °F 24.8 °F 93% 29.78 in 0.2 mi NE 18.4 mph - 0.00 in Fog , Snow Snow
10:48 AM 27.0 °F 13.9 °F 25.0 °F 92% 29.84 in 0.2 mi NE 18.4 mph - 0.00 in Fog , Snow Heavy Snow
10:56 AM 27.0 °F 13.9 °F 25.0 °F 92% 29.78 in 0.2 mi NE 18.4 mph - 0.01 in Fog , Snow Snow
11:53 AM 27.0 °F 12.8 °F 25.0 °F 92% 29.86 in 0.2 mi NE 21.9 mph 31.1 mph 0.01 in Fog , Snow Heavy Snow
1:07 PM 27.0 °F 11.6 °F 25.0 °F 92% 29.82 in 0.5 mi NE 26.5 mph 32.2 mph 0.00 in Fog , Snow Snow
1:30 PM 27.0 °F 12.5 °F 25.0 °F 92% 29.83 in 0.5 mi NE 23.0 mph 32.2 mph 0.00 in Fog , Snow Snow
1:38 PM 27.0 °F 12.8 °F 25.0 °F 92% 29.83 in 0.5 mi NE 21.9 mph 31.1 mph 0.00 in Fog , Snow Snow
1:53 PM 28.0 °F 14.3 °F 25.0 °F 88% 29.91 in 0.5 mi NE 21.9 mph 31.1 mph 0.00 in Fog , Snow Snow
2:01 PM 28.0 °F 13.9 °F 25.0 °F 88% 29.85 in 0.8 mi NNE 23.0 mph 31.1 mph 0.00 in Snow Light Snow
2:11 PM 28.0 °F 13.6 °F 25.0 °F 88% 29.85 in 1.0 mi NNE 24.2 mph 32.2 mph 0.00 in Snow Light Snow
2:28 PM 28.0 °F 13.3 °F 25.0 °F 88% 29.87 in 1.5 mi NE 25.3 mph - 0.00 in Snow Light Snow
2:53 PM 28.0 °F 13.9 °F 24.1 °F 85% 29.94 in 2.5 mi NNE 23.0 mph 32.2 mph 0.00 in Snow Light Snow
3:43 PM 28.0 °F 13.3 °F 24.1 °F 85% 29.92 in 3.0 mi NE 25.3 mph 32.2 mph 0.00 in Snow Light Snow
3:50 PM 28.4 °F 13.8 °F 24.8 °F 86% 29.93 in 2.5 mi NNE 25.3 mph 32.2 mph 0.00 in Snow Light Snow
3:53 PM 28.0 °F 14.3 °F 24.1 °F 85% 29.99 in 2.5 mi NNE 21.9 mph 32.2 mph 0.00 in   Overcast
4:06 PM 28.0 °F 14.3 °F 24.1 °F 85% 29.93 in 3.0 mi NNE 21.9 mph - N/A   Overcast
4:41 PM 28.0 °F 13.3 °F 24.1 °F 85% 29.95 in 3.0 mi NNE 25.3 mph 32.2 mph N/A   Overcast
4:53 PM 28.0 °F 12.8 °F 24.1 °F 85% 30.03 in 3.0 mi NNE 27.6 mph 33.4 mph N/A   Overcast
5:53 PM 28.0 °F 13.9 °F 25.0 °F 88% 30.06 in 3.0 mi NNE 23.0 mph 33.4 mph N/A   Overcast
6:18 PM 28.0 °F 13.6 °F 24.1 °F 85% 30.01 in 4.0 mi NNE 24.2 mph 33.4 mph N/A   Overcast
6:53 PM 28.0 °F 13.0 °F 24.1 °F 85% 30.09 in 7.0 mi NNE 26.5 mph 31.1 mph N/A   Overcast
7:12 PM 28.0 °F 13.9 °F 24.1 °F 85% 30.04 in 6.0 mi NNE 23.0 mph - N/A   Overcast
7:53 PM 28.0 °F 14.3 °F 23.0 °F 81% 30.12 in 5.0 mi NNE 21.9 mph - N/A   Haze
8:53 PM 28.0 °F 13.9 °F 23.0 °F 81% 30.15 in 10.0 mi NNE 23.0 mph - N/A   Overcast
9:53 PM 28.0 °F 13.9 °F 21.9 °F 78% 30.19 in 10.0 mi NNE 23.0 mph 29.9 mph N/A   Overcast
10:53 PM 26.1 °F 13.6 °F 19.9 °F 78% 30.20 in 10.0 mi NNE 16.1 mph - N/A   Mostly Cloudy
11:12 PM 24.1 °F 11.5 °F 19.0 °F 81% 30.13 in 10.0 mi NNE 15.0 mph - N/A   Scattered Clouds
11:53 PM 19.9 °F 10.1 °F 17.1 °F 89% 30.23 in 10.0 mi North 8.1 mph - N/A   Clear